TVS1KT LRCL-LKPR

Flight info

Callsign TVS1KT
Flight time 1h 14m
Altitude 38000
Route LARMU DCT BADOR DCT LALES DCT TUMKA DCT VLM
Aircraft B738/M-SDE2E3FGHIRWXY/LB1

Departure

Time 2026-05-06 17:48
Airport Avram Iancu Cluj International Airport (LRCL)

Arrival

Time 2026-05-06 19:03
Airport Václav Havel Airport Prague (LKPR)
Time Latitude Longitude Altitude Speed Heading
2026-05-06 17:13 46.78526 23.69427 1026 ft 0 kts 72°
2026-05-06 17:34 46.78526 23.69426 1025 ft 0 kts 72°
2026-05-06 17:39 46.78520 23.69408 1026 ft 2 kts 66°
2026-05-06 17:39 46.78517 23.69394 1026 ft 1 kts 77°
2026-05-06 17:39 46.78510 23.69376 1026 ft 2 kts 40°
2026-05-06 17:39 46.78497 23.69365 1026 ft 2 kts 13°
2026-05-06 17:40 46.78483 23.69364 1026 ft 1 kts 346°
2026-05-06 17:40 46.78477 23.69367 1026 ft 1 kts 340°
2026-05-06 17:40 46.78475 23.69368 1026 ft 0 kts 341°
2026-05-06 17:44 46.78488 23.69362 1026 ft 7 kts 341°
2026-05-06 17:44 46.78580 23.69317 1025 ft 16 kts 341°
2026-05-06 17:45 46.78686 23.69265 1024 ft 13 kts 342°
2026-05-06 17:45 46.78753 23.69233 1023 ft 6 kts 342°
2026-05-06 17:45 46.78795 23.69214 1023 ft 7 kts 342°
2026-05-06 17:45 46.78846 23.69189 1023 ft 8 kts 341°
2026-05-06 17:46 46.78909 23.69197 1023 ft 11 kts 38°
2026-05-06 17:46 46.78947 23.69324 1023 ft 14 kts 72°
2026-05-06 17:46 46.78979 23.69467 1022 ft 15 kts 75°
2026-05-06 17:46 46.78999 23.69624 1020 ft 8 kts 55°
2026-05-06 17:47 46.79013 23.69622 1021 ft 2 kts 289°
2026-05-06 17:47 46.79012 23.69609 1021 ft 0 kts 251°
2026-05-06 17:47 46.79007 23.69591 1021 ft 8 kts 251°
2026-05-06 17:48 46.78910 23.69162 1023 ft 83 kts 252°
2026-05-06 17:48 46.78656 23.68037 1029 ft 148 kts 252°
2026-05-06 17:48 46.78289 23.66476 1452 ft 165 kts 255°
2026-05-06 17:48 46.77961 23.64919 2196 ft 165 kts 254°
2026-05-06 17:49 46.77619 23.63331 2819 ft 168 kts 254°
2026-05-06 17:49 46.77377 23.61654 3400 ft 173 kts 277°
2026-05-06 17:49 46.77874 23.60099 3954 ft 177 kts 319°
2026-05-06 17:49 46.78945 23.59287 4615 ft 176 kts 346°
2026-05-06 17:50 46.80129 23.58836 5162 ft 182 kts 334°
2026-05-06 17:50 46.81214 23.57782 5621 ft 193 kts 321°
2026-05-06 17:50 46.82320 23.56575 6055 ft 210 kts 323°
2026-05-06 17:50 46.83604 23.55312 6425 ft 232 kts 325°
2026-05-06 17:51 46.84999 23.53975 6916 ft 251 kts 325°
2026-05-06 17:51 46.86487 23.52552 7555 ft 262 kts 324°
2026-05-06 17:51 46.88056 23.51019 8017 ft 282 kts 324°
2026-05-06 17:51 46.89685 23.49406 8713 ft 290 kts 324°
2026-05-06 17:52 46.91382 23.47709 9388 ft 300 kts 324°
2026-05-06 17:52 46.93108 23.45981 10197 ft 305 kts 323°
2026-05-06 17:52 46.94862 23.44194 10822 ft 316 kts 323°
2026-05-06 17:52 46.96711 23.42299 11412 ft 329 kts 323°
2026-05-06 17:53 46.98601 23.40376 12196 ft 334 kts 323°
2026-05-06 17:53 47.00499 23.38456 13056 ft 337 kts 323°
2026-05-06 17:53 47.02419 23.36520 13921 ft 339 kts 323°
2026-05-06 17:53 47.04374 23.34546 14801 ft 342 kts 323°
2026-05-06 17:54 47.06333 23.32567 15640 ft 345 kts 323°
2026-05-06 17:54 47.08278 23.30603 16459 ft 347 kts 323°
2026-05-06 17:54 47.10219 23.28508 17192 ft 350 kts 315°
2026-05-06 17:54 47.11755 23.25757 17923 ft 352 kts 301°
2026-05-06 17:55 47.12976 23.22617 18652 ft 355 kts 296°
2026-05-06 17:55 47.14098 23.19411 19373 ft 358 kts 296°
2026-05-06 17:55 47.15270 23.16165 20105 ft 361 kts 297°
2026-05-06 17:55 47.16494 23.12953 20813 ft 364 kts 298°
2026-05-06 17:56 47.17758 23.09755 21464 ft 368 kts 298°
2026-05-06 17:56 47.19063 23.06514 22156 ft 370 kts 299°
2026-05-06 17:56 47.20390 23.03248 22800 ft 373 kts 299°
2026-05-06 17:56 47.21722 22.99977 23417 ft 376 kts 299°
2026-05-06 17:57 47.23056 22.96698 24033 ft 379 kts 299°
2026-05-06 17:57 47.24404 22.93381 24664 ft 380 kts 299°
2026-05-06 17:57 47.25758 22.90048 25251 ft 383 kts 299°
2026-05-06 17:57 47.27118 22.86689 25820 ft 385 kts 299°
2026-05-06 17:58 47.28489 22.83299 26402 ft 386 kts 299°
2026-05-06 17:58 47.29862 22.79895 26932 ft 388 kts 299°
2026-05-06 17:58 47.31244 22.76463 27473 ft 390 kts 299°
2026-05-06 17:58 47.32612 22.73061 28006 ft 392 kts 300°
2026-05-06 17:59 47.34010 22.69580 28482 ft 394 kts 300°
2026-05-06 17:59 47.35404 22.66106 28973 ft 396 kts 300°
2026-05-06 17:59 47.36836 22.62535 29452 ft 398 kts 300°
2026-05-06 17:59 47.38247 22.59012 29918 ft 400 kts 300°
2026-05-06 18:00 47.39654 22.55493 30345 ft 403 kts 300°
2026-05-06 18:00 47.41080 22.51926 30839 ft 404 kts 300°
2026-05-06 18:00 47.42503 22.48362 31322 ft 404 kts 300°
2026-05-06 18:00 47.43919 22.44808 31737 ft 406 kts 300°
2026-05-06 18:01 47.45361 22.41188 32177 ft 408 kts 300°
2026-05-06 18:01 47.46799 22.37571 32656 ft 408 kts 300°
2026-05-06 18:01 47.48231 22.33963 33070 ft 409 kts 299°
2026-05-06 18:01 47.49674 22.30324 33469 ft 411 kts 299°
2026-05-06 18:02 47.51103 22.26713 33831 ft 413 kts 299°
2026-05-06 18:02 47.52565 22.23017 34234 ft 414 kts 299°
2026-05-06 18:02 47.54004 22.19371 34570 ft 416 kts 298°
2026-05-06 18:02 47.55466 22.15662 34853 ft 419 kts 299°
2026-05-06 18:03 47.56925 22.11960 35323 ft 417 kts 298°
2026-05-06 18:03 47.58338 22.08237 35772 ft 415 kts 296°
2026-05-06 18:03 47.59622 22.04452 36198 ft 412 kts 294°
2026-05-06 18:03 47.60845 22.00581 36596 ft 411 kts 293°
2026-05-06 18:04 47.62017 21.96769 36966 ft 411 kts 293°
2026-05-06 18:04 47.63200 21.92902 37375 ft 411 kts 293°
2026-05-06 18:04 47.64386 21.89056 37793 ft 411 kts 293°
2026-05-06 18:04 47.65580 21.85208 37925 ft 414 kts 293°
2026-05-06 18:05 47.67974 21.77564 37916 ft 409 kts 294°
2026-05-06 18:05 47.70369 21.69951 37909 ft 410 kts 293°
2026-05-06 18:06 47.72786 21.62262 37908 ft 409 kts 294°
2026-05-06 18:06 47.75187 21.54613 37911 ft 410 kts 293°
2026-05-06 18:07 47.77581 21.46967 37905 ft 411 kts 293°
2026-05-06 18:07 47.79971 21.39306 37903 ft 410 kts 293°
2026-05-06 18:08 47.82363 21.31616 37897 ft 409 kts 292°
2026-05-06 18:08 47.84739 21.23957 37895 ft 409 kts 292°
2026-05-06 18:09 47.87114 21.16272 37896 ft 408 kts 292°
2026-05-06 18:09 47.89473 21.08618 37894 ft 408 kts 292°
2026-05-06 18:10 47.91836 21.00928 37893 ft 410 kts 292°
2026-05-06 18:10 47.94212 20.93174 37890 ft 410 kts 292°
2026-05-06 18:11 47.96567 20.85462 37892 ft 410 kts 292°
2026-05-06 18:11 47.98918 20.77740 37893 ft 410 kts 292°
2026-05-06 18:12 48.01273 20.69978 37899 ft 411 kts 292°
2026-05-06 18:12 48.03611 20.62251 37904 ft 411 kts 292°
2026-05-06 18:13 48.05955 20.54479 37903 ft 410 kts 292°
2026-05-06 18:13 48.08293 20.46702 37899 ft 411 kts 292°
2026-05-06 18:14 48.10617 20.38948 37892 ft 411 kts 292°
2026-05-06 18:14 48.12958 20.31111 37885 ft 412 kts 291°
2026-05-06 18:15 48.15281 20.23308 37883 ft 413 kts 291°
2026-05-06 18:15 48.17617 20.15438 37882 ft 412 kts 291°
2026-05-06 18:16 48.19933 20.07613 37884 ft 413 kts 291°
2026-05-06 18:16 48.22253 19.99748 37885 ft 414 kts 291°
2026-05-06 18:17 48.24574 19.91853 37884 ft 414 kts 291°
2026-05-06 18:17 48.26884 19.83970 37884 ft 414 kts 291°
2026-05-06 18:18 48.29191 19.76074 37884 ft 415 kts 290°
2026-05-06 18:18 48.31500 19.68144 37883 ft 414 kts 290°
2026-05-06 18:19 48.33797 19.60230 37880 ft 415 kts 290°
2026-05-06 18:19 48.36092 19.52296 37879 ft 414 kts 290°
2026-05-06 18:20 48.38383 19.44347 37882 ft 415 kts 290°
2026-05-06 18:20 48.40668 19.36396 37882 ft 415 kts 290°
2026-05-06 18:21 48.42950 19.28429 37887 ft 416 kts 289°
2026-05-06 18:21 48.45233 19.20433 37892 ft 417 kts 289°
2026-05-06 18:22 48.47510 19.12436 37884 ft 416 kts 289°
2026-05-06 18:22 48.49791 19.04393 37874 ft 417 kts 289°
2026-05-06 18:23 48.52053 18.96390 37872 ft 417 kts 289°
2026-05-06 18:23 48.54321 18.88338 37868 ft 418 kts 289°
2026-05-06 18:24 48.56590 18.80256 37863 ft 416 kts 289°
2026-05-06 18:24 48.58833 18.72244 37859 ft 416 kts 289°
2026-05-06 18:25 48.61079 18.64186 37846 ft 417 kts 289°
2026-05-06 18:25 48.63325 18.56109 37842 ft 417 kts 289°
2026-05-06 18:26 48.65561 18.48035 37834 ft 418 kts 289°
2026-05-06 18:26 48.67792 18.39952 37836 ft 418 kts 289°
2026-05-06 18:27 48.70020 18.31850 37830 ft 418 kts 288°
2026-05-06 18:27 48.72243 18.23743 37815 ft 417 kts 288°
2026-05-06 18:28 48.74453 18.15655 37819 ft 418 kts 288°
2026-05-06 18:28 48.76668 18.07520 37824 ft 418 kts 288°
2026-05-06 18:29 48.78860 17.99445 37830 ft 416 kts 287°
2026-05-06 18:29 48.81062 17.91300 37821 ft 417 kts 288°
2026-05-06 18:30 48.83255 17.83160 37810 ft 417 kts 287°
2026-05-06 18:30 48.85432 17.75054 37791 ft 418 kts 287°
2026-05-06 18:31 48.87674 17.66941 37778 ft 420 kts 290°
2026-05-06 18:31 48.90208 17.58928 37778 ft 421 kts 291°
2026-05-06 18:32 48.92804 17.50956 37771 ft 421 kts 291°
2026-05-06 18:32 48.95362 17.43012 37767 ft 421 kts 291°
2026-05-06 18:33 48.97911 17.34992 37757 ft 421 kts 290°
2026-05-06 18:33 49.00424 17.27020 37761 ft 418 kts 290°
2026-05-06 18:34 49.02934 17.19006 37751 ft 420 kts 290°
2026-05-06 18:34 49.05433 17.10993 37736 ft 420 kts 290°
2026-05-06 18:35 49.07945 17.02914 37736 ft 420 kts 290°
2026-05-06 18:35 49.10439 16.94862 37737 ft 421 kts 290°
2026-05-06 18:36 49.11686 16.90829 37577 ft 423 kts 290°
2026-05-06 18:36 49.12938 16.86773 37258 ft 421 kts 290°
2026-05-06 18:36 49.14167 16.82792 36946 ft 417 kts 289°
2026-05-06 18:36 49.15396 16.78801 36647 ft 418 kts 289°
2026-05-06 18:37 49.16632 16.74778 36393 ft 419 kts 289°
2026-05-06 18:37 49.17462 16.72072 36236 ft 419 kts 289°
2026-05-06 18:37 49.19096 16.66733 35926 ft 419 kts 289°
2026-05-06 18:37 49.20318 16.62734 35697 ft 419 kts 289°
2026-05-06 18:38 49.21551 16.58696 35445 ft 418 kts 289°
2026-05-06 18:38 49.22769 16.54702 35093 ft 415 kts 289°
2026-05-06 18:38 49.23985 16.50725 34742 ft 411 kts 289°
2026-05-06 18:38 49.25180 16.46802 34359 ft 408 kts 289°
2026-05-06 18:39 49.26376 16.42855 33960 ft 410 kts 289°
2026-05-06 18:39 49.27573 16.38883 33556 ft 413 kts 289°
2026-05-06 18:39 49.28775 16.34890 33158 ft 415 kts 288°
2026-05-06 18:40 49.31200 16.26828 32362 ft 417 kts 288°
2026-05-06 18:40 49.32418 16.22772 31957 ft 419 kts 289°
2026-05-06 18:40 49.33632 16.18729 31567 ft 420 kts 289°
2026-05-06 18:40 49.34848 16.14671 31179 ft 422 kts 289°
2026-05-06 18:41 49.36076 16.10566 30782 ft 424 kts 289°
2026-05-06 18:41 49.37301 16.06461 30381 ft 427 kts 289°
2026-05-06 18:41 49.38538 16.02315 29982 ft 426 kts 289°
2026-05-06 18:41 49.39775 15.98165 29578 ft 428 kts 289°
2026-05-06 18:42 49.41018 15.93997 29172 ft 431 kts 289°
2026-05-06 18:42 49.42317 15.89884 28770 ft 434 kts 291°
2026-05-06 18:42 49.43710 15.85739 28366 ft 436 kts 292°
2026-05-06 18:42 49.45144 15.81585 27959 ft 440 kts 293°
2026-05-06 18:43 49.46586 15.77440 27552 ft 443 kts 293°
2026-05-06 18:43 49.48018 15.73314 27155 ft 443 kts 293°
2026-05-06 18:43 49.49474 15.69107 26750 ft 444 kts 293°
2026-05-06 18:43 49.50911 15.64922 26352 ft 447 kts 292°
2026-05-06 18:44 49.52353 15.60697 25950 ft 450 kts 292°
2026-05-06 18:44 49.53811 15.56404 25546 ft 452 kts 292°
2026-05-06 18:44 49.55260 15.52125 25147 ft 452 kts 292°
2026-05-06 18:44 49.56700 15.47865 24723 ft 450 kts 292°
2026-05-06 18:45 49.58145 15.43573 24293 ft 449 kts 293°
2026-05-06 18:45 49.59571 15.39335 23873 ft 445 kts 293°
2026-05-06 18:45 49.60979 15.35136 23455 ft 444 kts 293°
2026-05-06 18:45 49.62397 15.30899 22997 ft 439 kts 292°
2026-05-06 18:46 49.63780 15.26764 22533 ft 430 kts 292°
2026-05-06 18:46 49.65122 15.22750 22066 ft 421 kts 292°
2026-05-06 18:46 49.66454 15.18755 21614 ft 415 kts 292°
2026-05-06 18:46 49.67760 15.14819 21166 ft 413 kts 292°
2026-05-06 18:47 49.69112 15.10884 20715 ft 413 kts 295°
2026-05-06 18:47 49.70628 15.07168 20253 ft 414 kts 302°
2026-05-06 18:47 49.72505 15.03798 19788 ft 415 kts 310°
2026-05-06 18:47 49.74574 15.00755 19300 ft 413 kts 314°
2026-05-06 18:48 49.76739 14.97858 18799 ft 410 kts 316°
2026-05-06 18:48 49.78914 14.95061 18302 ft 406 kts 317°
2026-05-06 18:48 49.81094 14.92287 17815 ft 404 kts 317°
2026-05-06 18:48 49.83254 14.89528 17305 ft 402 kts 317°
2026-05-06 18:49 49.85400 14.86751 16811 ft 400 kts 317°
2026-05-06 18:49 49.87505 14.83995 16312 ft 397 kts 317°
2026-05-06 18:49 49.89587 14.81240 15823 ft 394 kts 316°
2026-05-06 18:49 49.91650 14.78491 15323 ft 392 kts 316°
2026-05-06 18:50 49.93725 14.75713 14811 ft 390 kts 316°
2026-05-06 18:50 49.95762 14.72979 14312 ft 388 kts 317°
2026-05-06 18:50 49.97789 14.70256 13774 ft 386 kts 317°
2026-05-06 18:50 49.99807 14.67542 13310 ft 381 kts 317°
2026-05-06 18:51 50.01709 14.64713 13083 ft 377 kts 310°
2026-05-06 18:51 50.03397 14.61621 12927 ft 375 kts 307°
2026-05-06 18:51 50.04968 14.58429 12796 ft 374 kts 304°
2026-05-06 18:51 50.06514 14.55158 12743 ft 373 kts 304°
2026-05-06 18:52 50.08010 14.51977 12737 ft 358 kts 304°
2026-05-06 18:52 50.09468 14.48906 12668 ft 341 kts 305°
2026-05-06 18:52 50.10838 14.46049 12525 ft 327 kts 305°
2026-05-06 18:52 50.12188 14.43243 12280 ft 318 kts 305°
2026-05-06 18:53 50.13506 14.40515 12034 ft 310 kts 305°
2026-05-06 18:53 50.14785 14.37871 11787 ft 302 kts 305°
2026-05-06 18:53 50.16040 14.35277 11539 ft 295 kts 305°
2026-05-06 18:53 50.17272 14.32726 11294 ft 294 kts 304°
2026-05-06 18:54 50.18489 14.30205 11018 ft 296 kts 304°
2026-05-06 18:54 50.19736 14.27616 10613 ft 295 kts 304°
2026-05-06 18:54 50.20952 14.25099 10282 ft 292 kts 304°
2026-05-06 18:54 50.22168 14.22583 9898 ft 290 kts 304°
2026-05-06 18:55 50.23386 14.20058 9544 ft 287 kts 305°
2026-05-06 18:55 50.24573 14.17593 9195 ft 285 kts 305°
2026-05-06 18:55 50.25731 14.15181 9098 ft 273 kts 305°
2026-05-06 18:55 50.26853 14.12838 8974 ft 262 kts 305°
2026-05-06 18:56 50.27918 14.10613 8754 ft 251 kts 305°
2026-05-06 18:56 50.28944 14.08447 8320 ft 249 kts 305°
2026-05-06 18:56 50.29969 14.06275 7868 ft 246 kts 305°
2026-05-06 18:56 50.30876 14.04041 7371 ft 245 kts 294°
2026-05-06 18:57 50.31322 14.01504 6887 ft 243 kts 270°
2026-05-06 18:57 50.30943 13.98953 6376 ft 244 kts 240°
2026-05-06 18:57 50.29778 13.97035 5832 ft 247 kts 210°
2026-05-06 18:57 50.28161 13.96322 5460 ft 245 kts 179°
2026-05-06 18:58 50.26487 13.96891 5133 ft 244 kts 158°
2026-05-06 18:58 50.24955 13.97923 4863 ft 240 kts 155°
2026-05-06 18:58 50.23461 13.99071 4562 ft 236 kts 147°
2026-05-06 18:58 50.22252 14.00693 4437 ft 224 kts 129°
2026-05-06 18:59 50.21337 14.02584 4274 ft 218 kts 122°
2026-05-06 18:59 50.20470 14.04514 4085 ft 214 kts 124°
2026-05-06 18:59 50.19604 14.06324 3958 ft 203 kts 125°
2026-05-06 18:59 50.18770 14.08031 3796 ft 196 kts 125°
2026-05-06 19:00 50.17951 14.09736 3508 ft 194 kts 124°
2026-05-06 19:00 50.17157 14.11390 3245 ft 187 kts 124°
2026-05-06 19:00 50.16399 14.12954 3003 ft 175 kts 124°
2026-05-06 19:00 50.15678 14.14456 2763 ft 170 kts 124°
2026-05-06 19:01 50.14967 14.15934 2537 ft 170 kts 124°
2026-05-06 19:01 50.14270 14.17371 2343 ft 159 kts 124°
2026-05-06 19:01 50.13621 14.18717 2098 ft 149 kts 123°
2026-05-06 19:01 50.13003 14.19996 1915 ft 151 kts 124°
2026-05-06 19:02 50.12362 14.21300 1705 ft 148 kts 124°
2026-05-06 19:02 50.11754 14.22575 1497 ft 144 kts 124°
2026-05-06 19:02 50.11144 14.23822 1317 ft 144 kts 126°
2026-05-06 19:02 50.10547 14.25059 1176 ft 141 kts 125°
2026-05-06 19:03 50.10072 14.26048 1172 ft 77 kts 127°
2026-05-06 19:03 50.09872 14.26544 1179 ft 33 kts 91°
2026-05-06 19:03 50.09893 14.26817 1183 ft 8 kts 82°
2026-05-06 19:03 50.09901 14.26896 1184 ft 6 kts 81°
2026-05-06 19:04 50.09907 14.26966 1185 ft 6 kts 81°
2026-05-06 19:04 50.09912 14.27026 1186 ft 4 kts 83°
2026-05-06 19:04 50.09917 14.27090 1187 ft 9 kts 88°
2026-05-06 19:04 50.09983 14.27053 1184 ft 20 kts 304°
2026-05-06 19:05 50.10074 14.26862 1178 ft 23 kts 307°
2026-05-06 19:05 50.10180 14.26641 1172 ft 26 kts 304°
2026-05-06 19:05 50.10274 14.26541 1172 ft 13 kts 20°
2026-05-06 19:05 50.10343 14.26610 1172 ft 4 kts 16°
2026-05-06 19:06 50.10370 14.26603 1172 ft 4 kts 358°
2026-05-06 19:06 50.10402 14.26622 1172 ft 6 kts 33°
2026-05-06 19:06 50.10410 14.26631 1172 ft 0 kts 33°